This is the latest recevied weather packets stored in our database for station/object KB5DPX. If no packets are shown the sender has not sent any weather packets the latest 10 day(s).
| Time | Temp. | Humidity | Pressure | Rain* | Wind** | Luminosity | Snow |
|---|---|---|---|---|---|---|---|
| 1777306375 | 19.44° C | 48% | 1014.8 hPa | 0 mm | - | 900 W/m² | - |
| 1777306077 | 18.89° C | 47% | 1014.8 hPa | 0 mm | - | 900 W/m² | - |
| 1777305761 | 19.44° C | 48% | 1014.9 hPa | 0 mm | - | 886 W/m² | - |
| 1777305463 | 18.89° C | 49% | 1015 hPa | 0 mm | - | 872 W/m² | - |
| 1777305177 | 18.89° C | 48% | 1014.9 hPa | 0 mm | - | 865 W/m² | - |
| 1777304878 | 18.33° C | 49% | 1014.9 hPa | 0 mm | - | 856 W/m² | - |
| 1777304556 | 18.33° C | 51% | 1014.9 hPa | 0 mm | - | 842 W/m² | - |
| 1777304267 | 17.78° C | 51% | 1015.1 hPa | 0 mm | - | 838 W/m² | - |
| 1777303972 | 17.78° C | 51% | 1015.4 hPa | 0 mm | - | 830 W/m² | - |
| 1777303667 | 17.22° C | 54% | 1015.5 hPa | 0 mm | - | 824 W/m² | - |
| 1777303378 | 17.22° C | 53% | 1015.8 hPa | 0 mm | - | 786 W/m² | - |
| 1777303062 | 16.67° C | 55% | 1015.8 hPa | 0 mm | - | 788 W/m² | - |
| 1777302774 | 16.67° C | 54% | 1016.1 hPa | 0 mm | - | 817 W/m² | - |
| 1777302472 | 16.67° C | 57% | 1016.3 hPa | 0 mm | - | 728 W/m² | - |
| 1777302155 | 16.67° C | 56% | 1016.7 hPa | 0 mm | - | 788 W/m² | - |
| 1777301879 | 16.11° C | 57% | 1016.8 hPa | 0 mm | - | 772 W/m² | - |
| 1777301563 | 16.67° C | 56% | 1017 hPa | 0 mm | - | 680 W/m² | - |
| 1777301274 | 16.11° C | 59% | 1017.2 hPa | 0 mm | - | 726 W/m² | - |
| 1777300959 | 16.11° C | 58% | 1017.3 hPa | 0 mm | - | 707 W/m² | - |
| 1777300671 | 15.56° C | 58% | 1017.4 hPa | 0 mm | - | 703 W/m² | - |
| 1777300355 | 15.56° C | 58% | 1017.5 hPa | 0 mm | - | 675 W/m² | - |
| 1777300054 | 15.56° C | 58% | 1017.7 hPa | 0 mm | - | 468 W/m² | - |
| 1777299767 | 15.56° C | 57% | 1017.6 hPa | 0 mm | - | 524 W/m² | - |
| 1777299471 | 15° C | 57% | 1017.6 hPa | 0 mm | - | 642 W/m² | - |
| 1777299155 | 15° C | 56% | 1017.8 hPa | 0 mm | - | 608 W/m² | - |
* Rain latest hour (hover to see other rain measurements)
** Current wind speed in m/s (hover to see current wind gust speed)